Hourly Data Report for July 06, 2021

CAMPBELL RIVER A
BRITISH COLUMBIA
Current Station Operator: NAVCAN

49°57'07.000" N
125°16'23.000" W
108.80 m
1021270
YBL

Download Data

Hourly Data (July 2021)
Hourly Data Report for July 6, 2021
TIME
LST
Temp Definition
°C
Dew Point Definition
°C
Rel Hum Definition
%
Precip. Amount Definition
mm

Wind Dir Definition
10's deg

Wind Spd Definition
km/h
Visibility Definition
km
Stn Press Definition
kPa
Hmdx Definition


Wind Chill Definition


Weather Definition


00:00 14.8 12.7 87 LegendMM 29 7 LegendMM 100.48     LegendNANA
01:00 13.4 12.1 91 LegendMM 28 4 LegendMM 100.49     LegendNANA
02:00 13.8 11.7 87 LegendMM 31 7 LegendMM 100.51     LegendNANA
03:00 13.3 11.2 87 LegendMM 30 14 LegendMM 100.52     LegendNANA
04:00 12.4 10.8 90 LegendMM 30 9 LegendMM 100.53     LegendNANA
05:00 12.5 11.1 91 LegendMM 31 14 LegendMM 100.57     LegendNANA
06:00 14.4 11.8 84 LegendMM 30 8 LegendMM 100.57     LegendNANA
07:00 16.2 12.0 76 LegendMM 32 12 LegendMM 100.57     LegendNANA
08:00 17.9 12.3 69 LegendMM 31 10 LegendMM 100.56     LegendNANA
09:00 20.0 12.8 63 LegendMM 29 6 LegendMM 100.52     LegendNANA
10:00 21.7 13.2 58 LegendMM 11 8 LegendMM 100.47 25   LegendNANA
11:00 22.5 13.3 56 LegendMM 12 7 LegendMM 100.43 25   LegendNANA
12:00 24.1 13.9 53 LegendMM 11 10 LegendMM 100.37 27   LegendNANA
13:00 25.7 13.6 47 LegendMM 6 10 LegendMM 100.30 29   LegendNANA
14:00 27.1 14.5 45 LegendMM 7 10 LegendMM 100.24 31   LegendNANA
15:00 27.8 14.3 43 LegendMM 13 4 LegendMM 100.16 31   LegendNANA
16:00 28.5 14.1 41 LegendMM 12 7 LegendMM 100.09 32   LegendNANA
17:00 28.9 14.4 41 LegendMM 8 8 LegendMM 100.05 33   LegendNANA
18:00 28.4 14.4 42 LegendMM 9 7 LegendMM 100.00 32   LegendNANA
19:00 27.6 14.4 44 LegendMM 35 9 LegendMM 99.99 31   LegendNANA
20:00 22.9 15.1 61 LegendMM 32 8 LegendMM 99.97 27   LegendNANA
21:00 21.2 13.4 61 LegendMM 29 12 LegendMM 99.98     LegendNANA
22:00 20.3 12.2 59 LegendMM 29 13 LegendMM 99.97     LegendNANA
23:00 18.4 11.7 65 LegendMM 31 17 LegendMM 99.94     LegendNANA

Notes on Data Quality.

Legend

  • E = Estimated
  • M = Missing
  • NA = Not Available*
  • [empty] = Indicates an unobserved value
Date modified: